GW3424 Weather Reports


Display with metric or nautical units.
time (UTC)temp
F
wind
direction
speed
MPH
gust
MPH
rain 1hr
in
rain 24hr
in
rain mn
in
humidity
%
barometer
mb
20260505151044 68 360 8.0 14.0 0.00 0.00 0.00 47 976.5
20260505150543 68 360 7.0 15.0 0.00 0.00 0.00 46 976.4
20260505140542 66 360 8.0 16.0 0.00 0.00 0.00 57 976.1
20260505124548 66 360 4.0 12.0 0.00 0.00 0.00 57 975.3
20260505124043 66 360 7.0 12.0 0.00 0.00 0.00 56 975.2
20260505123542 66 360 5.0 12.0 0.00 0.00 0.00 56 975.1
20260505123042 66 360 3.0 12.0 0.00 0.00 0.00 56 975.1
20260505122542 66 360 4.0 14.0 0.00 0.00 0.00 56 975.1
20260505122042 66 360 3.0 8.0 0.00 0.00 0.00 55 975.2
20260505121543 66 360 2.0 8.0 0.00 0.00 0.00 56 975.3
20260505121043 66 360 3.0 6.0 0.00 0.00 0.00 56 975.3
20260505120543 66 360 1.0 9.0 0.00 0.00 0.00 56 975.2
20260505120049 66 360 4.0 9.0 0.00 0.00 0.00 56 975.1
20260505115544 66 360 1.0 4.0 0.00 0.00 0.00 56 975.1
20260505115042 66 360 1.0 5.0 0.00 0.00 0.00 55 975.1
20260505114546 66 360 2.0 5.0 0.00 0.00 0.00 56 975.0
20260505114042 66 360 1.0 6.0 0.00 0.00 0.00 56 975.0
20260505113547 66 360 2.0 6.0 0.00 0.00 0.00 55 974.9
20260505113042 66 360 2.0 4.0 0.00 0.00 0.00 54 974.9
20260505112545 66 360 1.0 5.0 0.00 0.00 0.00 54 974.9
20260505112043 66 360 2.0 6.0 0.00 0.00 0.00 54 974.9
20260505111543 66 360 2.0 6.0 0.00 0.00 0.00 54 974.8
20260505111044 67 360 3.0 6.0 0.00 0.00 0.00 54 974.8
20260505110543 67 360 3.0 5.0 0.00 0.00 0.00 53 974.8
20260505102042 68 360 4.0 15.0 0.00 0.00 0.00 52 975.3
20260505101544 68 360 5.0 15.0 0.00 0.00 0.00 51 975.3
20260505101042 68 360 3.0 13.0 0.00 0.00 0.00 50 975.4
20260505100543 68 360 6.0 15.0 0.00 0.00 0.00 50 975.3
20260505100043 68 360 8.0 17.0 0.00 0.00 0.00 49 975.3
20260505095542 68 360 7.0 17.0 0.00 0.00 0.00 49 975.4
20260505095042 68 360 4.0 18.0 0.00 0.00 0.00 48 975.6
20260505094543 69 360 11.0 18.0 0.00 0.00 0.00 48 975.7
20260505094042 69 360 10.0 17.0 0.00 0.00 0.00 48 975.6
20260505093542 69 360 10.0 18.0 0.00 0.00 0.00 48 975.8
20260505093043 69 360 9.0 18.0 0.00 0.00 0.00 47 975.8
20260505092546 69 360 6.0 17.0 0.00 0.00 0.00 46 975.8
20260505092043 69 360 10.0 17.0 0.00 0.00 0.00 46 975.7
20260505091542 69 360 8.0 18.0 0.00 0.00 0.00 45 975.8
20260505091042 69 360 10.0 19.0 0.00 0.00 0.00 45 975.8
20260505090542 69 360 11.0 21.0 0.00 0.00 0.00 45 975.8
20260505090047 70 360 12.0 18.0 0.00 0.00 0.00 45 975.6
20260505085543 70 360 6.0 19.0 0.00 0.00 0.00 44 975.5
20260505085044 70 360 11.0 19.0 0.00 0.00 0.00 44 975.6
20260505084547 70 360 8.0 18.0 0.00 0.00 0.00 44 975.7
20260505084042 70 360 11.0 18.0 0.00 0.00 0.00 43 975.9
20260505083542 70 360 6.0 16.0 0.00 0.00 0.00 43 975.8
20260505083042 70 360 8.0 18.0 0.00 0.00 0.00 42 975.9
20260505082542 70 360 10.0 19.0 0.00 0.00 0.00 41 976.0
20260505082042 70 360 12.0 19.0 0.00 0.00 0.00 41 976.2
20260505081543 71 360 9.0 19.0 0.00 0.00 0.00 41 976.2
20260505081043 71 360 7.0 15.0 0.00 0.00 0.00 41 976.2
20260505080545 71 360 8.0 15.0 0.00 0.00 0.00 40 976.2
20260505080052 71 360 8.0 17.0 0.00 0.00 0.00 40 976.2
20260505075545 71 360 7.0 17.0 0.00 0.00 0.00 40 976.1
20260505075042 71 360 8.0 16.0 0.00 0.00 0.00 40 976.0
20260505074543 71 360 9.0 19.0 0.00 0.00 0.00 39 976.1
20260505074043 71 360 10.0 19.0 0.00 0.00 0.00 39 976.3
20260505073542 71 360 9.0 17.0 0.00 0.00 0.00 39 976.2
20260505073046 71 360 10.0 17.0 0.00 0.00 0.00 39 976.2
20260505072543 72 360 8.0 12.0 0.00 0.00 0.00 38 975.9
20260505072043 72 360 7.0 13.0 0.00 0.00 0.00 38 975.9
20260505071543 72 360 7.0 14.0 0.00 0.00 0.00 38 975.8
20260505071042 72 360 4.0 14.0 0.00 0.00 0.00 38 976.0
20260505070542 72 360 6.0 15.0 0.00 0.00 0.00 38 976.0
20260505070051 72 360 7.0 15.0 0.00 0.00 0.00 38 975.9
20260505065543 72 360 10.0 14.0 0.00 0.00 0.00 37 975.9
20260505065043 72 360 7.0 13.0 0.00 0.00 0.00 37 976.0
20260505064542 73 360 9.0 13.0 0.00 0.00 0.00 37 976.2
20260505064043 73 360 6.0 13.0 0.00 0.00 0.00 37 976.1
20260505063542 73 360 9.0 11.0 0.00 0.00 0.00 38 976.1
20260505063057 73 360 5.0 10.0 0.00 0.00 0.00 38 976.0
20260505062546 73 360 7.0 10.0 0.00 0.00 0.00 39 975.9
20260505062042 73 360 3.0 9.0 0.00 0.00 0.00 41 975.9
20260505061544 73 360 5.0 9.0 0.00 0.00 0.00 42 975.7
20260505061047 73 360 5.0 9.0 0.00 0.00 0.00 42 975.7
20260505060542 73 360 5.0 9.0 0.00 0.00 0.00 42 975.8
20260505060043 73 360 4.0 9.0 0.00 0.00 0.00 42 975.6
20260505055542 73 360 4.0 8.0 0.00 0.00 0.00 42 975.7
20260505055043 73 360 3.0 9.0 0.00 0.00 0.00 42 975.6
20260505054543 73 360 5.0 11.0 0.00 0.00 0.00 42 975.5
20260505054042 73 360 7.0 11.0 0.00 0.00 0.00 42 975.6
20260505053542 73 360 4.0 10.0 0.00 0.00 0.00 42 975.6
20260505053052 73 360 3.0 6.0 0.00 0.00 0.00 41 975.7
20260505052542 73 360 0.0 5.0 0.00 0.00 0.00 41 975.8
20260505052044 73 360 3.0 6.0 0.00 0.00 0.00 41 976.0
20260505051542 74 360 2.0 10.0 0.00 0.00 0.00 41 975.9
20260505051043 73 360 6.0 10.0 0.00 0.00 0.00 41 976.1
20260505050543 73 360 2.0 9.0 0.00 0.00 0.00 41 976.0
20260505041553 73 360 1.0 3.0 0.00 0.00 0.00 43 976.1
20260505041043 73 360 0.0 2.0 0.00 0.00 0.00 42 975.9
20260505040542 73 360 0.0 4.0 0.00 0.00 0.00 42 976.0
20260505040051 73 360 0.0 4.0 0.00 0.00 0.00 41 976.0
20260505035542 73 360 1.0 4.0 0.00 0.00 0.00 41 975.9
20260505035044 73 360 2.0 4.0 0.00 0.00 0.00 41 976.1
20260505034542 73 360 2.0 4.0 0.00 0.00 0.00 41 976.0
20260505034044 73 360 2.0 4.0 0.00 0.00 0.00 41 975.9
20260505033542 73 360 2.0 4.0 0.00 0.00 0.00 41 975.8
20260505033142 73 360 2.0 4.0 0.00 0.00 0.00 41 975.6
20260505032542 73 360 2.0 4.0 0.00 0.00 0.00 41 975.4
20260505032046 73 360 3.0 4.0 0.00 0.00 0.00 41 975.2
20260505031550 73 360 3.0 4.0 0.00 0.00 0.00 41 975.4
20260505031043 73 360 2.0 5.0 0.00 0.00 0.00 40 975.2
20260505030542 73 360 3.0 6.0 0.00 0.00 0.00 40 975.2
20260505030042 74 360 3.0 5.0 0.00 0.00 0.00 40 975.0
20260505025543 74 360 3.0 5.0 0.00 0.00 0.00 39 975.0
20260505025043 74 360 3.0 5.0 0.00 0.00 0.00 39 974.9
20260505024555 74 360 2.0 5.0 0.00 0.00 0.00 38 975.0
20260505024042 75 360 3.0 9.0 0.00 0.00 0.00 38 975.0
20260505023542 75 360 4.0 10.0 0.00 0.00 0.00 41 974.9
20260505023042 75 360 4.0 12.0 0.00 0.00 0.00 41 974.9
20260505022542 75 360 7.0 13.0 0.00 0.00 0.00 41 975.0
20260505022043 75 360 6.0 13.0 0.00 0.00 0.00 41 975.0
20260505021544 75 360 4.0 14.0 0.00 0.00 0.00 41 975.0
20260505021042 75 360 4.0 14.0 0.00 0.00 0.00 42 974.9
20260505020542 75 360 8.0 13.0 0.00 0.00 0.00 42 975.1
20260505020042 75 360 9.0 13.0 0.00 0.00 0.00 42 974.9
20260505015545 75 360 7.0 13.0 0.00 0.00 0.00 43 974.8
20260505015042 75 360 8.0 13.0 0.00 0.00 0.00 43 975.0
20260505014601 75 360 6.0 13.0 0.00 0.00 0.00 42 974.9
20260505014042 75 360 9.0 13.0 0.00 0.00 0.00 42 974.8
20260505013542 75 360 5.0 14.0 0.00 0.00 0.00 42 974.8
20260505013042 75 360 8.0 14.0 0.00 0.00 0.00 42 974.7
20260505012542 75 360 9.0 14.0 0.00 0.00 0.00 42 974.8
20260505012043 75 360 7.0 14.0 0.00 0.00 0.00 42 974.9
20260505011554 75 360 4.0 11.0 0.00 0.00 0.00 42 974.7
20260505011042 76 360 7.0 11.0 0.00 0.00 0.00 42 974.8
20260505010544 76 360 4.0 13.0 0.00 0.00 0.00 42 974.8
20260505010042 76 360 7.0 12.0 0.00 0.00 0.00 42 974.8
20260505005542 76 360 7.0 12.0 0.00 0.00 0.00 41 974.8
20260505005042 76 360 8.0 12.0 0.00 0.00 0.00 41 974.8
20260505004543 76 360 3.0 11.0 0.00 0.00 0.00 41 974.8
20260505004042 76 360 5.0 9.0 0.00 0.00 0.00 41 974.8
20260505003543 76 360 4.0 11.0 0.00 0.00 0.00 41 974.8
20260505003042 76 360 5.0 11.0 0.00 0.00 0.00 41 974.9
20260505002542 77 360 4.0 12.0 0.00 0.00 0.00 40 974.9
20260505002042 76 360 7.0 12.0 0.00 0.00 0.00 41 974.9
20260505001542 76 360 6.0 12.0 0.00 0.00 0.00 41 975.0
20260505001042 76 360 5.0 11.0 0.00 0.00 0.00 41 975.1
20260505000544 76 360 5.0 13.0 0.00 0.00 0.00 41 975.1
20260505000054 76 360 5.0 13.0 0.00 0.00 0.00 40 975.0
20260504235542 76 360 5.0 10.0 0.00 0.00 0.00 41 975.0
20260504235042 76 360 6.0 11.0 0.00 0.00 0.00 41 974.9
20260504234547 76 360 7.0 14.0 0.00 0.00 0.00 41 975.0
20260504234043 76 360 10.0 14.0 0.00 0.00 0.00 40 974.9
20260504233542 76 360 5.0 13.0 0.00 0.00 0.00 40 975.1
20260504233102 76 360 6.0 13.0 0.00 0.00 0.00 39 975.2
20260504232542 76 360 9.0 13.0 0.00 0.00 0.00 38 975.2
20260504232044 76 360 7.0 13.0 0.00 0.00 0.00 38 975.1
20260504231544 77 360 6.0 14.0 0.00 0.00 0.00 38 975.1
20260504231042 77 360 10.0 14.0 0.00 0.00 0.00 37 975.2
20260504230542 76 360 6.0 14.0 0.00 0.00 0.00 37 975.1
20260504230042 76 360 9.0 14.0 0.00 0.00 0.00 37 975.0
20260504225543 76 360 8.0 14.0 0.00 0.00 0.00 38 975.0
20260504225044 76 360 9.0 14.0 0.00 0.00 0.00 39 975.2
20260504224543 76 360 7.0 15.0 0.00 0.00 0.00 39 975.2
20260504224042 76 360 9.0 15.0 0.00 0.00 0.00 39 975.3
20260504223542 76 360 8.0 13.0 0.00 0.00 0.00 40 975.1
20260504223056 76 360 6.0 12.0 0.00 0.00 0.00 40 975.3
20260504222543 76 360 7.0 11.0 0.00 0.00 0.00 40 975.3
20260504222042 76 360 5.0 12.0 0.00 0.00 0.00 41 975.4
20260504221543 76 360 7.0 12.0 0.00 0.00 0.00 41 975.4
20260504221044 76 360 4.0 12.0 0.00 0.00 0.00 41 975.4
20260504220542 76 360 6.0 12.0 0.00 0.00 0.00 41 975.7
20260504220042 76 360 8.0 12.0 0.00 0.00 0.00 41 975.6
20260504215542 75 360 6.0 12.0 0.00 0.00 0.00 41 975.8
20260504215042 75 360 7.0 12.0 0.00 0.00 0.00 41 976.0
20260504214542 75 360 6.0 11.0 0.00 0.00 0.00 42 975.7
20260504214046 75 360 6.0 11.0 0.00 0.00 0.00 42 976.0
20260504213542 75 360 7.0 14.0 0.00 0.00 0.00 42 976.0
20260504213053 74 360 9.0 14.0 0.00 0.00 0.00 42 976.2
20260504212543 75 360 6.0 14.0 0.00 0.00 0.00 42 976.3
20260504212042 75 360 8.0 15.0 0.00 0.00 0.00 42 976.4
20260504211542 75 360 9.0 15.0 0.00 0.00 0.00 42 976.4
20260504211042 75 360 4.0 15.0 0.00 0.00 0.00 42 976.3
20260504210542 74 360 9.0 15.0 0.00 0.00 0.00 42 976.4
20260504210043 74 360 6.0 14.0 0.00 0.00 0.00 43 976.6
20260504205542 74 360 2.0 14.0 0.00 0.00 0.00 43 976.5
20260504205045 74 360 6.0 14.0 0.00 0.00 0.00 43 976.6
20260504204547 74 360 6.0 14.0 0.00 0.00 0.00 44 976.6
20260504204042 74 360 6.0 14.0 0.00 0.00 0.00 44 976.7
20260504203542 74 360 7.0 14.0 0.00 0.00 0.00 44 976.8
20260504203058 74 360 3.0 15.0 0.00 0.00 0.00 45 976.8
20260504202542 74 360 9.0 16.0 0.00 0.00 0.00 45 976.9
20260504202046 74 360 8.0 16.0 0.00 0.00 0.00 45 977.1
20260504201542 73 360 7.0 17.0 0.00 0.00 0.00 45 976.9
20260504201042 73 360 9.0 17.0 0.00 0.00 0.00 44 977.1
20260504200542 73 360 6.0 17.0 0.00 0.00 0.00 44 977.0
20260504200044 73 360 10.0 17.0 0.00 0.00 0.00 44 977.0
20260504195542 73 360 8.0 15.0 0.00 0.00 0.00 45 976.9
20260504195042 73 360 11.0 17.0 0.00 0.00 0.00 45 976.9
20260504194542 72 360 9.0 16.0 0.00 0.00 0.00 45 976.9
20260504194045 72 360 9.0 19.0 0.00 0.00 0.00 45 976.7
20260504193545 72 360 12.0 19.0 0.00 0.00 0.00 45 976.9
20260504193043 72 360 10.0 19.0 0.00 0.00 0.00 44 976.6
20260504192542 72 360 9.0 17.0 0.00 0.00 0.00 45 976.6
20260504192044 72 360 12.0 17.0 0.00 0.00 0.00 45 976.7
20260504191543 72 360 12.0 17.0 0.00 0.00 0.00 45 976.6
20260504191042 72 360 10.0 16.0 0.00 0.00 0.00 45 976.4
20260504190542 72 360 12.0 16.0 0.00 0.00 0.00 45 976.6
20260504190046 72 360 11.0 18.0 0.00 0.00 0.00 45 976.8
20260504185542 72 360 12.0 23.0 0.00 0.00 0.00 45 976.8
20260504185042 72 360 13.0 23.0 0.00 0.00 0.00 46 976.8
20260504184542 71 360 10.0 21.0 0.00 0.00 0.00 46 976.7
20260504184042 72 360 12.0 19.0 0.00 0.00 0.00 46 976.7
20260504183542 72 360 11.0 19.0 0.00 0.00 0.00 46 976.6
20260504183042 72 360 13.0 19.0 0.00 0.00 0.00 46 976.6
20260504182546 72 360 7.0 21.0 0.00 0.00 0.00 46 976.6
20260504182042 71 360 9.0 21.0 0.00 0.00 0.00 47 977.0
20260504181546 71 360 10.0 15.0 0.00 0.00 0.00 47 976.7
20260504181042 71 360 5.0 14.0 0.00 0.00 0.00 47 976.7
20260504180542 71 360 6.0 14.0 0.00 0.00 0.00 47 977.0
20260504180043 71 360 7.0 15.0 0.00 0.00 0.00 48 977.2
20260504175543 71 360 8.0 15.0 0.00 0.00 0.00 48 977.4
20260504175042 71 360 8.0 17.0 0.00 0.00 0.00 49 977.4
20260504174544 71 360 9.0 17.0 0.00 0.00 0.00 49 977.4
20260504174042 71 360 11.0 19.0 0.00 0.00 0.00 49 977.1
20260504173543 71 360 8.0 20.0 0.00 0.00 0.00 49 976.9
20260504173042 71 360 12.0 20.0 0.00 0.00 0.00 50 976.8
20260504172543 71 360 14.0 19.0 0.00 0.00 0.00 50 976.5
20260504172042 70 360 8.0 14.0 0.00 0.00 0.00 50 976.2
20260504171547 70 360 5.0 11.0 0.00 0.00 0.00 50 975.9
20260504171042 70 360 3.0 13.0 0.00 0.00 0.00 51 976.1
20260504170542 70 360 9.0 15.0 0.00 0.00 0.00 51 976.2